447  
ASUS44 KHUN 191710  
RWRHUN  
 
WEATHER ROUNDUP FOR THE TENNESSEE VALLEY  
NATIONAL WEATHER SERVICE HUNTSVILLE AL  
1100 AM CST TUE JAN 19 2021  
 
ALZ001>004-191800-  
NORTHWEST ALABAMA  
 
CITY SKY/WX TMP DP RH WIND PRES REMARKS
 
SHOALS AIRPORT NOT AVBL  

 
 
ALZ005>007-016-191800-  
NORTH CENTRAL ALABAMA  
 
CITY SKY/WX TMP DP RH WIND PRES REMARKS
 
CULLMAN AG STN N/A 45 N/A N/A SW5 N/A  
DECATUR AP CLOUDY 51 33 50 SW8 30.33S  
HUNTSVILLE AP CLOUDY 51 33 50 SW10 30.32S  
HUN NWS/UAH N/A 51 32 48 SW6 N/A  
MERIDIANVILLE CLOUDY 52 32 46 SW10 30.32S  
VINEMONT AP CLOUDY 47 29 49 S6 30.35F  

 
 
ALZ008>010-191800-  
NORTHEAST ALABAMA  
 
CITY SKY/WX TMP DP RH WIND PRES REMARKS
 
ALBERTVILLE PTSUNNY 48 30 49 SW9 30.33S  
FORT PAYNE CLOUDY 46 28 50 SW6 30.33S  
SCOTTSBORO AP CLOUDY 48 30 49 SW7 30.34R  

 
 
TNZ076-096-097-191800-  
SOUTHEASTERN MIDDLE TENNESSEE  
 
CITY SKY/WX TMP DP RH WIND PRES REMARKS
 
FAYETTEVILLE CLOUDY 50 32 50 SW10 30.32S  
TULLAHOMA NOT AVBL  
WINCHESTER CLOUDY 52 30 43 W14G21 30.29S  

 
   
..SURROUNDING SITES
 
 
 
CITY SKY/WX TMP DP RH WIND PRES REMARKS
 
ATLANTA MOSUNNY 58 24 27 W15G21 30.34F  
ANNISTON CLOUDY 55 28 35 W10 30.36S  
BIRMINGHAM CLOUDY 52 27 38 SW5 30.38S  
CHATTANOOGA CLOUDY 50 28 42 S6 30.31F  
CORINTH CLOUDY 54 39 58 W7 30.31S  
DALTON CLOUDY 46 27 46 S3 30.34F  
GADSDEN PTSUNNY 45 32 60 CALM 30.36F  
GOLDEN TRNGL LGT RAIN 45 41 86 S5 30.36S  
HALEYVILLE LGT RAIN 47 35 63 SW9 30.35S  
JACKSON TN PTSUNNY 53 29 39 NW8 30.30S  
MEMPHIS CLOUDY 53 33 46 W5 30.32R  
NASHVILLE PTSUNNY 57 25 29 W12 30.28F  
OXFORD MS CLOUDY 48 45 87 CALM 30.34S  
ROME PTSUNNY 47 30 51 S3 30.33F  
SAVANNAH CLOUDY 50 34 53 SW7 30.30S  
SELMER PTSUNNY 50 34 53 SW5 30.29F  
TUPELO CLOUDY 48 39 71 CALM 30.34R  
TUSCALOOSA CLOUDY 47 38 71 S5 30.38S  

 
 
 
 
CLICK HERE TO GO TO PREVIOUS BULLETINS.

The Nexlab AL Page
The Nexlab TN Page Main Text Page